Regional Weather Roundup
Issued by NWS Sioux Falls, SD

Home | Current Version | Previous Version | Text Only | Print | Product List | Glossary On
Versions: 1 2 3 4 5 6 7 8 9 10 11 12 13 14 15 16 17 18 19 20 21 22 23 24 25 26 27 28 29 30 31 32 33 34 35 36 37 38 39 40 41 42 43 44 45 46 47 48 49 50
000
ASUS43 KFSD 191110
RWRFSD

WEATHER ROUNDUP FOR SE SOUTH DAKOTA/SW MINNESOTA/NW IOWA
NATIONAL WEATHER SERVICE SIOUX FALLS SD
600 AM CDT FRI SEP 19 2014

NOTE: "FAIR" INDICATES FEW OR NO CLOUDS BELOW 12,000 FEET WITH NO
SIGNIFICANT WEATHER AND OR OBSTRUCTIONS TO VISIBILITY.


SDZ038>040-050-052>070-191200-
SOUTHEAST SOUTH DAKOTA

CITY           SKY/WX    TMP DP  RH WIND       PRES   REMARKS
CHAMBERLAIN    CLOUDY    64  62  93 SE3       29.74F
HURON          CLOUDY    62  58  86 SE10G17   29.76F
MADISON        CLOUDY    59  59 100 S17       29.83S FOG
MITCHELL       CLOUDY    63  61  93 SE10      29.77F
SIOUX FALLS    DRIZZLE   63  59  87 S16       29.84S
WINNER         FAIR      66  63  90 SW8G20    29.75R
YANKTON        CLOUDY    64  61  88 S14G21    29.82F
$$

MNZ071-072-080-081-089-090-097-098-191200-
SOUTHWEST MINNESOTA

CITY           SKY/WX    TMP DP  RH WIND       PRES   REMARKS
FAIRMONT       MOCLDY    57  48  72 S15       29.94R
JACKSON        CLOUDY    61  55  82 S13G18    29.92R
LUVERNE        CLOUDY    63  57  82 S12G17    29.88S
MARSHALL       CLOUDY    63  54  72 S16G23    29.84F
MONTEVIDEO     CLOUDY    63  57  82 SW13G18   29.83S
PIPESTONE      CLOUDY    61  57  88 S13G20    29.86F
REDWOOD FALLS  MOCLDY    63  57  81 S22G28    29.87F
TRACY          MOCLDY    62  58  86 SW18G26   29.86F
WINDOM         MOCLDY    61  55  82 S12G20    29.90S
WORTHINGTON    CLOUDY    59  55  88 S14G23    29.90S
$$

IAZ001>003-012>014-020>022-031-032-NEZ013-014-SDZ071-191200-
NORTHWEST IOWA

CITY           SKY/WX    TMP DP  RH WIND       PRES   REMARKS
CHEROKEE       CLOUDY    61  60  97 S12G18    29.91F
DENISON        CLOUDY    61  61 100 S10       29.92F
ESTHERVILLE    CLOUDY    58  55  90 S16       29.93S
LE MARS          N/A    N/A N/A N/A S14G22    29.89R
ORANGE CITY    CLOUDY    63  59  88 S15G22    29.89R FOG
SHELDON        CLOUDY    61  59  94 S13G22    29.89R
SIOUX CITY     CLOUDY    62  60  93 VRB7      29.89S
SPENCER        CLOUDY    60  57  89 S14       29.92S
STORM LAKE     CLOUDY    61  61 100 S10G20    29.93F
$$

ABBREVIATIONS USED IN REMARKS
   TC - TEMPERATURE IN CELSIUS
  WCI - WIND CHILL INDEX
   HX - HEAT INDEX
  VSB - VISIBILITY




USA.gov is the U.S. government's official web portal to all federal, state and local government web resources and services.